Powrót do katalogu

BREEZE-M R/B

AktywnyMEO
NORAD 40346·ROCKET BODY·🇷🇺 Russia

Wystrzelony Dec 15, 2014 z Baikonur Cosmodrome

Loading…

Następne Przeloty (najbliższe 24 godziny)

TLE

ŚwieżeSource: Space-Track

Epoka: Sep 14, 2026, 05:51 UTC

1 40346U 14082B   26257.24410279 -.00000135  00000-0  00000-0 0  9993
2 40346   8.8325  50.3449 0662521 191.9576 166.5144  1.11335363 47554

Śledź BREEZE-M R/B w czasie rzeczywistym z AllMySat

Download on the App Store